Regional Weather Roundup
Issued by NWS

Home | Current Version | Previous Version | Text Only | Print | Product List | Glossary On
Versions: 1 2 3 4 5 6 7 8 9 10 11 12 13 14 15 16 17 18 19 20 21 22 23 24 25 26 27 28 29 30 31 32 33 34 35 36 37 38 39 40 41 42 43 44 45 46 47 48 49 50
000
ASUS45 KTFX 020119
RWRMT
MONTANA HOURLY WEATHER ROUNDUP
NATIONAL WEATHER SERVICE GREAT FALLS MT
719 PM MDT WED APR 1 2015

NOTE: "FAIR" INDICATES FEW OR NO CLOUDS BELOW 12000 FEET WITH NO
SIGNIFICANT WEATHER AND/OR OBSTRUCTIONS TO VISIBILITY.

* THESE STATIONS ARE NOT UNDER NWS QUALITY CONTROL. THEY DO NOT
   REPORT WEATHER SUCH AS PRECIPITATION OR FOG.

MTZ001>007-043-020200-
WEST OF THE DIVIDE
CITY           SKY/WX    TMP DP  RH WIND       PRES   REMARKS
KALISPELL      MOCLDY    45  21  38 W18G29    29.95R
MISSOULA       MOCLDY    39  27  62 NW14G20   30.05R WCI  31
BUTTE          MOCLDY    34  12  40 W9        29.96F WCI  27
MULLAN PASS    CLOUDY    21  21 100 NW6       29.99R WCI  13
* ESSEX        N/A       41  18  39 SE7        N/A
* EUREKA APT   MOCLDY    46  21  37 S9        29.95R
* HAMILTON APT PTCLDY    39  25  57 N10       30.05R WCI  32
* LIBBY APT    MOCLDY    45  19  35 W3        30.01R
* LINCOLN      N/A       42  16  35 SW7G20     N/A
* LOOKOUT PASS N/A       29  26  89 NE6        N/A   WCI  23
* POLSON       N/A       40  19  43 NW4G10     N/A
* SEELEY LAKE  N/A       41  15  35 W6G18      N/A
* THOMP F APT  MOCLDY    33   8  35 NE5G15     N/A   WCI  28
* YAAK HILL    N/A       51  21  31 W2         N/A
$$

MTZ008-052>055-020200-
SOUTHWEST MONTANA
CITY           SKY/WX    TMP DP  RH WIND       PRES   REMARKS
BOZEMAN        CLOUDY    43  16  34 W17       29.95R
DILLON         PTCLDY    39   7  26 W21       29.95F WCI  29
* W YELLOWSTON CLOUDY    31  18  59 S2G8       N/A
* THREE FORKS  MOCLDY    45  16  31 W8         N/A
* TWIN BRIDGES PTCLDY    41  10  28 W5         N/A
* BOULDER HILL N/A       32  13  45 S12G19     N/A   WCI  23
* HOMESTAKE PS N/A       29  13  51 NW5G14     N/A   WCI  24
* MONIDA PASS  N/A       30  14  51 NW21G26    N/A   WCI  17
* RAYNOLDS PAS N/A       29  28  96 N20G30     N/A   WCI  16
* WHITEHALL    N/A       40  15  36 W14G22     N/A   WCI  32
* WISE RIVER   N/A       35  16  46 W15G29     N/A   WCI  25
$$

MTZ009>010-012-014-046-048-049-054-020200-
EAST SLOPES AND CENTRAL MONTANA
CITY           SKY/WX    TMP DP  RH WIND       PRES   REMARKS
CUT BANK       CLEAR     41  16  36 W29G37    29.81R
GREAT FALLS    PTCLDY    46   3  17 W24G29    29.84R
HELENA         PTCLDY    43  19  38 W23G32    29.93R
MALMSTROM AFB  PTCLDY    46   5  18 W24G32    29.85R
* CONRAD       PTCLDY    45  18  34 SW29G39    N/A
* DEARBORN     N/A       47  13  25 S16G25     N/A
* EAST GLACIER N/A       34  16  48 W28G38     N/A   WCI  21
* MONARCH      N/A       40   7  25 W24G32     N/A   WCI  30
* PENDROY      N/A       41  14  33 NW29G42    N/A
* ROGERS PASS  N/A       34  12  40 E4G16      N/A
* SAINT MARY   N/A       39  12  33 SW9G24     N/A   WCI  33
* SWEET GRASS  N/A       44  11  26 NW32G46    N/A
* WHITE SULPH  N/A       38   9  30 W6G22      N/A   WCI  33
$$

MTZ011-013-016-021-035-040-045-047-050-051-020200-
NORTH CENTRAL MONTANA
CITY           SKY/WX    TMP DP  RH WIND       PRES   REMARKS
HAVRE          CLOUDY    48  16  28 W30G40    29.74R
LEWISTOWN      CLOUDY    45   9  23 W15       29.82R
* N BAR RANCH  MOCLDY    41   7  24 W8G16     29.83R
* CHINOOK      MOCLDY    48  16  28 W22G38    29.72S
* FORT BENTON  PTCLDY    48   9  20 W23G33    29.83R
* MALTA APT    PTCLDY    52  19  27 SW23G31    N/A
* CHESTER      N/A       46   8  21 W22G35     N/A
* DENTON       N/A       46  12  25 W19G27     N/A
* GEYSER       N/A       44   8  23 W25G37     N/A
* JUDITH GAP   N/A       41   7  24 NW11G20    N/A
* LOMA         N/A       49  11  21 SW30G46    N/A
$$

MTZ017>020-022>027-061-062-020200-
NORTHEAST MONTANA
CITY           SKY/WX    TMP DP  RH WIND       PRES   REMARKS
GLASGOW        PTCLDY    48  25  41 SW12      29.69F
GLENDIVE       PTCLDY    46  23  40 NW13      29.76S
JORDAN         PTCLDY    48  21  34 NW14G25   29.75R
SIDNEY         PTCLDY    46  21  37 W16G22    29.72S
WOLF POINT     PTCLDY    48  27  44 W18G26    29.70F
* BEAVER HILL  N/A       47  20  34 W22G29     N/A
* CIRCLE       N/A       45  32  60 W7         N/A
* LINDSAY DVD  N/A       43  26  51 NW15G22    N/A
* NAVAJO       N/A       44  21  40 W24G32     N/A
* PLENTYWOOD A PTCLDY    46  18  33 W23G31    29.63S
* POPLAR APT   PTCLDY    46  27  48 SW15G21   29.71S
* SACO         N/A       49  18  29 SW30G36    N/A
$$

MTZ028>042-056>058-020200-
SOUTHCENTRAL AND SOUTHEAST MONTANA
CITY           SKY/WX    TMP DP  RH WIND       PRES   REMARKS
BAKER          PTCLDY    48  16  28 NW18G25   29.77R
BILLINGS       MOCLDY    46   7  20 W23G33    29.87R
LIVINGSTON     MOCLDY    39  16  39 W21G26    29.93R WCI  29
MILES CITY     PTCLDY    52  16  24 NW21G29   29.79R
* BIG TIMBER A CLOUDY    37  19  48 W12       29.92R WCI  29
* FORSYTH APT  PTCLDY    46  18  33 W8        29.82R
* LAUREL APT   MOCLDY    48  10  21 W18G29     N/A
* ROUNDUP APT  MOCLDY    48   0  13 W21G31     N/A
* ALZADA       N/A       50   6  16 W12G20     N/A
* HYSHAM       N/A       49  11  21 W16G27     N/A
* LAME DEER    N/A       45   3  17 W9G25      N/A
* REED POINT   N/A       44  18  35 W20G29     N/A
* ROSCOE HILL  N/A       39   5  24 W5G17      N/A   WCI  35
$$

REGIONAL REPORTS...DAKOTAS
CITY           SKY/WX    TMP DP  RH WIND       PRES   REMARKS
WILLISTON      MOCLDY    50  21  32 W21G36    29.66S
DICKINSON      PTCLDY    48  21  34 W17G23    29.71R
BEACH          CLEAR     45  18  34 NW14      29.76R
CROSBY         LGT RAIN  45  28  51 NW21G30   29.63R
TIOGA          PTCLDY    46  21  37 W16G21    29.67R
WATFORD CITY   CLEAR     48  19  32 W21G35    29.68R
BISMARCK       MOCLDY    55  21  27 NW18G30   29.68R
GRAND FORKS    MOCLDY    54  39  57 W24G30    29.52R
FARGO          MOCLDY    61  36  39 NW21G30   29.53R
BUFFALO SD     PTCLDY    52   9  17 NW17      29.72R
RAPID CITY     PTCLDY    50  19  29 NW15      29.81R
$$

REGIONAL REPORTS...WYOMING/IDAHO/WASHINGTON
CITY           SKY/WX    TMP DP  RH WIND       PRES   REMARKS
GILLETTE       PTCLDY    43  12  28 NW15      29.87R
SHERIDAN       CLOUDY    45  12  26 N14       29.87R
CODY           PTCLDY    37  19  48 SW13G18   29.92R WCI  29
YELLOWSTONE LA CLOUDY    25  14  63 N/A       29.95R
SALMON         PTCLDY    41  18  39 CALM      30.02R
MULLAN PASS    CLOUDY    21  21 100 NW6       29.99S WCI  13
SAND POINT     CLOUDY    41  34  76 SW8       30.07F
SPOKANE        MOCLDY    46  27  48 SW13      30.06F
$$

REGIONAL REPORTS...ALBERTA
CITY           SKY/WX    TMP DP  RH WIND       PRES   REMARKS
CALGARY        CLOUDY    36  23  59 N26G44    29.89R WCI  24
LETHBRIDGE     MOCLDY    41  21  45 NW17G26   29.84R
MEDICINE HAT   LGT RAIN  36  32  85 W35G48    29.74R WCI  22
EDMONTON       CLOUDY    34  25  70 N22       29.91R WCI  22
WATERTON GATE  N/A       39  10  30 W17G30     N/A   WCI  30
CARDSTON       N/A       41  16  36 W18G28     N/A
MILK RIVER     N/A       39  23  53 N23G35     N/A   WCI  28
$$

REGIONAL REPORTS...SASKATCHEWAN
CITY           SKY/WX    TMP DP  RH WIND       PRES   REMARKS
SWIFT CURRENT  CLOUDY    37  25  62 W29G44    29.54S WCI  25
REGINA         FAIR      43  28  56 W13       29.53F
VAL MARIE      N/A       45  16  31 W23G30     N/A
ASSINIBOIA     N/A       45  23  42 W17G36     N/A
CORONACH       N/A       41  34  76 SW9        N/A

$$



USA.gov is the U.S. government's official web portal to all federal, state and local government web resources and services.